Tracking 30685 objects as of 17-Jun-2025
HD Live streaming from Space Station
objects crossing your sky now

STARLINK-3173

Track STARLINK-3173 now!
10-day predictions
STARLINK-3173 is classified as:


NORAD ID: 51111
Int'l Code: 2022-005H
Perigee: 545.9 km
Apogee: 547.8 km
Inclination: 53.2 °
Period: 95.4 minutes
Semi major axis: 6917 km
RCS: Unknown
Launch date: January 19, 2022
Source: United States (US)
Launch site: AIR FORCE EASTERN TEST RANGE (AFETR)
Your satellite tracking list
Your tracking list is empty




NASA's NSSDC Master Catalog

Two Line Element Set (TLE):
1 51111U 22005H   25167.92180486  .00003976  00000-0  26767-3 0  9993
2 51111  53.2177  42.1981 0001318  86.3869 273.7274 15.08849353189864
Source of the keplerian elements: AFSPC